• Join FlightAware (Why Join?)
  • Login
  • US Flag GB Flag 
08:07 EDT


 

Airport Tracker/Info


-or-


 

Live Flight TrackerFlight Track Log ✈ N960DL ✈ 03-May-2013 ✈ KATL - KORF

Flight Track Log - Related Links

Times and Time Zones

All times are in EDT time to prevent confusion due to time zone crossing. See the N960DL flight status page for this flight to view local times or setup timezone preferences in your user account.

Time Position Orientation Groundspeed Altitude Reporting Facility
EDT Latitude Longitude Course Direction KTS MPH feet Rate Location/Type
15:33 33.6353 -84.3781 64° Northeast 437 503 2,600  Level Atlanta Center
15:33 33.6333 -84.3500 95° East 203 234 3,400 2,700 Climbing Atlanta TRACON
15:34 33.6333 -84.2833 90° East 239 275 6,300 2,520 Climbing Atlanta TRACON
15:36 33.6876 -83.8587 101° East  Level FlightAware Approximate
15:36 33.6356 -84.1511 89° East 270 311 10,100  Level Atlanta Center
15:37 33.6641 -83.7179 101° East  Level FlightAware Approximate
15:37 33.6356 -84.0514 90° East 280 322 11,300  Level Atlanta Center
15:38 33.6711 -83.5819 64° Northeast  Level FlightAware Approximate
15:38 33.6439 -83.9314 85° East 333 383 13,000  Level Atlanta Center
15:39 33.6542 -83.8042 84° East 366 421 15,600 2,280 Climbing Atlanta Center
15:40 33.6600 -83.6744 87° East 385 443 17,600 1,620 Climbing Atlanta Center
15:41 33.6994 -83.5444 70° East 391 450 18,900 1,440 Climbing Atlanta Center
15:42 33.7550 -83.4117 63° Northeast 425 489 20,500 1,560 Climbing Atlanta Center
15:44 33.8703 -83.1281 64° Northeast 467 537 23,600 1,500 Climbing Atlanta Center
15:45 33.9314 -82.9672 65° Northeast 467 537 25,100 1,500 Climbing Atlanta Center
15:46 33.9906 -82.8236 64° Northeast 473 544 26,700 1,560 Climbing Atlanta Center
15:47 34.0497 -82.6725 65° Northeast 473 544 28,300 1,560 Climbing Atlanta Center
15:48 34.1083 -82.5283 64° Northeast 484 557 29,900 1,320 Climbing Atlanta Center
15:49 34.1650 -82.3844 65° Northeast 478 550 31,000 960 Climbing Atlanta Center
15:50 34.2214 -82.2400 65° Northeast 473 544 31,900 840 Climbing Atlanta Center
15:51 34.2797 -82.0981 64° Northeast 468 539 32,700 600 Climbing Atlanta Center
15:52 34.3486 -81.9631 58° Northeast 468 539 33,200 540 Climbing Atlanta Center
15:53 34.4172 -81.8281 58° Northeast 468 539 33,800 600 Climbing Atlanta Center
15:54 34.4878 -81.6925 58° Northeast 473 544 34,400 420 Climbing Atlanta Center
15:55 34.5539 -81.5544 60° Northeast 473 544 34,700 240 Climbing Atlanta Center
15:56 34.6200 -81.4189 59° Northeast 473 544 34,900 120 Climbing Atlanta Center
15:57 34.6797 -81.2956 59° Northeast 473 544 35,000  Climbing Atlanta Center
15:58 34.7456 -81.1619 59° Northeast 467 537 35,000 -420 Level Atlanta Center
15:59 34.8111 -81.0233 60° Northeast 476 548 34,200 -660 Descending Atlanta Center
16:00 34.8786 -80.8867 59° Northeast 476 548 33,700 -600 Descending Atlanta Center
16:01 34.9461 -80.7497 59° Northeast 476 548 33,000 -360 Descending Atlanta Center
16:02 35.0111 -80.6128 60° Northeast 476 548 33,000  Level Atlanta Center
16:04 35.1622 -80.2947 60° Northeast 484 557 33,000  Level Washington Center
16:05 35.2303 -80.1564 59° Northeast 472 543 33,000  Level Washington Center
16:06 35.2978 -80.0228 58° Northeast 467 537 33,000  Level Washington Center
16:07 35.3633 -79.8836 60° Northeast 461 531 33,000  Level Washington Center
16:08 35.4244 -79.7467 61° Northeast 461 531 33,000  Level Washington Center
16:09 35.4736 -79.5936 68° East 461 531 33,000  Level Washington Center
16:10 35.5161 -79.4428 71° East 461 531 33,000  Level Washington Center
16:11 35.5583 -79.2917 71° East 466 536 33,000  Level Washington Center
16:12 35.5986 -79.1403 72° East 466 536 33,000  Level Washington Center
16:13 35.6406 -78.9861 71° East 466 536 33,000 -720 Level Washington Center
16:14 35.6844 -78.8319 71° East 466 536 31,600 -1,260 Descending Washington Center
16:15 35.7261 -78.6778 72° East 471 542 30,600 -960 Descending Washington Center
16:16 35.7697 -78.5206 71° East 477 549 29,700 -840 Descending Washington Center
16:17 35.8067 -78.3683 73° East 477 549 29,000 -720 Descending Washington Center
16:18 35.8478 -78.2133 72° East 477 549 28,300 -1,080 Descending Washington Center
16:19 35.8819 -78.0786 73° East 471 542 26,900 -1,500 Descending Washington Center
16:20 35.9225 -77.9311 71° East 458 527 25,300 -1,560 Descending Washington Center
16:21 35.9564 -77.7886 74° East 447 514 23,800 -1,740 Descending Washington Center
16:22 36.0006 -77.6561 68° East 427 491 21,900 -1,440 Descending Washington Center
16:23 36.0589 -77.5344 59° Northeast 412 474 21,000 -480 Descending Washington Center
16:24 36.1172 -77.4175 58° Northeast 405 466 21,000 -720 Level Washington Center
16:25 36.1753 -77.2878 61° Northeast 393 452 19,600 -1,440 Descending Washington Center
16:26 36.2311 -77.1731 59° Northeast 388 447 18,200 -1,140 Descending Washington Center
16:27 36.2633 -77.1092 58° Northeast 386 444 17,800 -900 Descending Washington Center
16:27 36.2806 -77.0708 61° Northeast 388 447 17,300 -1,800 Descending Washington Center
16:28 36.3189 -76.9867 61° Northeast 380 437 16,000 -1,800 Descending Washington Center
16:28 36.3319 -76.9586 60° Northeast 378 435 15,500 -1,920 Descending Washington Center
16:29 36.3744 -76.8714 59° Northeast 356 410 13,900 -2,220 Descending Washington Center
16:29 36.3853 -76.8561 49° Northeast 366 421 13,400 -1,980 Descending Washington Center
16:30 36.4358 -76.7950 44° Northeast 339 390 12,100 -1,680 Descending Washington Center
16:30 36.4486 -76.7694 58° Northeast 345 397 11,700 -1,320 Descending Washington Center
16:31 36.4950 -76.7081 47° Northeast 327 376 10,800 -1,080 Descending Washington Center
16:31 36.5100 -76.6878 47° Northeast 328 377 10,600 -720 Descending Washington Center
16:32 36.5500 -76.6289 50° Northeast 267 307 10,100 -900 Descending Washington Center
16:32 36.5606 -76.6108 54° Northeast 303 349 9,800 -1,140 Descending Washington Center
16:33 36.5967 -76.5594 49° Northeast 265 305 9,000 -1,020 Descending Washington Center
16:33 36.6092 -76.5417 49° Northeast 280 322 8,800 -1,380 Descending Washington Center
16:34 36.6431 -76.4903 51° Northeast 258 297 7,600 -1,680 Descending Washington Center
16:34 36.6536 -76.4772 45° Northeast 258 297 7,100 -2,700 Descending Washington Center
16:35 36.6850 -76.4311 50° Northeast 236 272 4,900 -2,700 Descending Washington Center
16:35 36.6956 -76.4131 54° Northeast 242 278 4,400 -2,580 Descending Washington Center
16:36 36.7336 -76.3642 46° Northeast 234 269 2,300 -2,220 Descending Washington Center
16:36 36.7400 -76.3567 43° Northeast 237 273 2,200 -300 Descending Washington Center
16:37 36.7714 -76.3231 41° Northeast 154 177 2,000 -300 Descending Washington Center